Pagina principale
METAR-TAF:

METAR-TAF

Aeroporti :

Torino, Italia

Aeroporto di Torino-Aeritalia

latitudine: 45-05-20N, longitudine: 007-36-20E, altezza: 288 m

Osservazione

Il bollettino è stato emesso 13 ore e 55 minuti fa, alle 16:50 UTC
Vento 17 kt da ovest con raffiche fino a 27 kt
Temperature 27°C
Umidità 24%
Pressione 1004 hPa
Visibilità 10 km o più
nessuna nube inferiore a 1500 m e nessun cumulonembo

METAR: LIMA 251650Z 27017G27KT CAVOK 27/05 Q1004

Ora: 08:45 (06:45 UTC)


TAF: mancante

Osservazioni e previsioni meteorologiche di più di 4000 aeroporti (messaggi METAR e TAF).

Le stazioni disponibili sono rappresentate dai dischi gialli e rossi sulla carta.

Puntare il mouse per vedere il nome della stazione.

Clicca sopra per visualizzare le osservazioni e previsioni meteorologiche.

Per cambiare la mappa : fare clic sui pulsanti verdi con una croce nera per ingrandire, il pulsante verde con un trattino per diminuire, o sulla freccia verde per le mappe adiacenti.


METAR-TAF: